www.pogodaiklimat.ru

Погода и климат >> Архив погоды >> Россия >> Кировская область >> Кумены


ПОГОДА в Кумене

  • Прогноз погоды в Кумене
  • Монитор погоды в Кумене
  • Климат города

АРХИВ ПОГОДЫ в Кумене

Время (UTC), дата Ветер
(напр.,м/с)
 
Видим.   Явления Облачность Т
(С)
Тd
(С)
f
(%)
Тe
(С)
Тes
(С)
Комфортность P
(гПа)
Po
(гПа)
Тmin
(С)
Tmax
(С)
R
(мм)
R24
(мм)
S
(см)
12 15.09 З 2-4
{6}
20 км 6/6 1000 м
[Cu med, cong]
+18.2 +6.5 46 +19 +20 1021.5 1000.6
15 15.09 штиль 0
{5}
25 км 4/4 1000 м
[Cu med, cong]
+14.0 +6.2 59 +14 +14 1021.4 1000.2 +18.3
18 15.09 Ю 1-2
{2}
10 км ясно +8.4 +5.9 84 +8 +8 1022.5 1000.9
21 15.09 Ю 2-3
{3}
10 км ясно +8.3 +5.5 83 +6 +6 1023.1 1001.5
00 16.09 штиль 0
{3}
10 км ясно +5.4 +4.0 91 +4 +4 1023.0 1001.1
03 16.09 Ю 1-2
{3}
14 км 10/0
[Ci fib]
+4.8 +3.8 93 +3 +3 1023.0 1001.1 +4.3
06 16.09 Ю 1-4
{4}
29 км 10/0
[Ci fib]
+13.8 +9.3 74 +14 +18 1021.1 999.9
09 16.09 ЮВ 3-7
{8}
30 км 8/0
[Ci fib]
+17.6 +6.2 47 +18 +22 1019.6 998.7
12 16.09 ЮВ 3-6
{8}
25 км 9/0
[Ac trans]
+18.4 +6.4 45 +19 +20 1017.4 996.7
15 16.09 ЮВ 2-4
{6}
23 км 10/3 600 м
[Sc Ac trans Ci fib]
+16.0 +5.4 49 +16 +16 1015.1 994.1 +18.6
18 16.09 ЮВ 4-8
{9}
10 км 10/0
[Ac As]
+14.8 +6.5 58 +14 +14 1013.6 992.7
21 16.09 ЮВ 3-7
{8}
10 км 10/0
[Ac As]
+13.8 +6.5 61 +13 +13 1011.7 990.7
00 17.09 ЮВ 3-5
{7}
10 км 8/0
[Ac lent]
+12.2 +5.8 65 +11 +11 1009.7 988.6
03 17.09 ЮВ 3-6
{6}
30 км 6/0
[Ci fib]
+10.9 +5.8 71 +9 +9 1007.8 986.7 +10.7
06 17.09 Ю 3-6
{8}
30 км 10/10 1000 м
[Sc]
+12.6 +6.1 65 +11 +11 1007.2 986.2 +10.4
09 17.09 Ю 1-3
{9}
5000 м слабый дождь 10/10 300 м
[Frnb Ns]
+11.8 +11.0 95 +12 +12 1007.3 986.3
12 17.09 З 3-6
{6}
21 км {дождь} 10/10 600 м
[Cb cap]
+12.6 +11.7 94 +11 +11 1007.6 986.6
15 17.09 З 2-4
{8}
24 км {ливн. осадки} 10/10 600 м
[Cb cap]
+11.8 +10.4 91 +11 +11 1011.0 989.9 +13.2 9
18 17.09 СЗ 1-2
{10}
10 км {ливн. осадки} ясно +7.2 +6.4 95 +6 +6 1014.5 992.9
21 17.09 штиль 0
{8}
10 км ясно +4.6 +3.6 93 +3 +3 1015.7 993.8
00 18.09 ЮВ 1-1
{2}
10 км ясно +2.5 +1.5 93 +1 +1 1015.9 993.9
03 18.09 штиль 0
{2}
9000 м дымка ясно -0.3 -0.6 98 -2 -2 1015.6 993.3 -0.3
06 18.09 ЮЗ 1-1
{2}
20 км 4/0
[Ci fib]
+8.5 +7.7 95 +8 +12 1014.1 992.2
09 18.09 Ю 1-3
{5}
30 км 8/8 600 м
[Cu med, cong]
+12.5 +5.0 60 +13 +14 1011.8 990.7
12 18.09 ЮВ 2-3
{5}
26 км 10/8 600 м
[Sc Ac trans]
+13.0 +5.8 62 +12 +13 1008.9 987.8
15 18.09 Ю 2-3
{5}
20 км в посл. час дождь 10/0
[Ac As]
+10.2 +6.8 79 +9 +9 1007.4 986.2 +14.1 0.0
18 18.09 Ю 2-4
{4}
4000 м дождь 10/10 300 м
[Frnb Ns]
+8.6 +6.8 88 +7 +7 1006.6 985.3
21 18.09 Ю 2-3
{4}
4000 м {дождь} 10/10 300 м
[Frnb Ns]
+8.3 +7.0 92 +6 +6 1004.0 982.7
00 19.09 Ю 1-2
{3}
4000 м слабый дождь 10/10 300 м
[Frnb Ns]
+8.9 +7.8 93 +8 +8 1003.0 981.9
03 19.09 СЗ 3-5
{5}
8000 м слабый дождь 10/10 300 м
[Frnb Ns]
+9.2 +8.4 95 +7 +7 1002.6 981.5 +8.0 2
06 19.09 СЗ 4-7
{9}
7000 м {дождь} 10/10 300 м
[Frnb Ns]
+9.0 +8.6 97 +6 +6 1003.3 982.2
09 19.09 СЗ 4-8
{9}
10 км {дождь} 10/10 300 м
[Frnb Ns]
+10.1 +9.7 97 +7 +7 1003.7 982.7
12 19.09 СЗ 4-9
{10}
30 км {дождь} 10/10 300 м
[Frnb Ns]
+9.3 +8.2 93 +6 +6 1005.3 984.1
15 19.09 СЗ 4
{6}
29 км 8/0
[Ac lent]
+8.8 +6.7 87 +6 +6 1007.1 985.8 +10.2 3
18 19.09 СЗ 3-5
{7}
10 км 3/0
[Ac trans]
+7.3 +4.5 82 +4 +4 1007.9 986.5
21 19.09 СЗ 2-4
{5}
10 км ясно +4.9 +3.0 87 +2 +2 1008.9 987.3
00 20.09 СЗ 2-3
{5}
10 км ясно +3.5 +2.2 91 0 0 1009.6 987.8
03 20.09 СЗ 1-2
{4}
20 км ясно +2.0 +0.9 92 0 0 1010.8 988.9 +1.8
06 20.09 С 2-4
{5}
20 км ясно +7.5 +5.9 90 +5 +9 1010.6 989.1 +1.6
09 20.09 СЗ 4-7
{8}
20 км 6/6 600 м
[Cu hum]
+12.5 +3.2 53 +11 +12 1010.2 989.1
12 20.09 СЗ 2-5
{8}
20 км 6/0
[Ac trans Ci fib]
+13.8 +3.0 48 +14 +15 1010.0 989.0
15 20.09 СЗ 1-2
{5}
20 км в посл. час ливневой дождь 10/10 1000 м
[Sc]
+10.4 +6.1 75 +10 +10 1011.0 989.7 +14.4 0.0
18 20.09 штиль 0
{2}
10 км {ливн. осадки} 10/10 1000 м
[Sc]
+8.8 +6.7 87 +8 +8 1011.7 990.3
21 20.09 штиль 0
{1}
10 км 10/0
[Ac As]
+6.4 +5.3 93 +5 +5 1012.2 990.6
00 21.09 штиль 0
{1}
500 м туман 10/10 300 м
[St]
+3.3 +2.6 95 +2 +2 1013.3 991.5
03 21.09 штиль 0
{1}
1600 м дымка {туман} 6/0
[Ac trans]
+2.2 +1.9 98 +1 +1 1014.6 992.7 +1.9
06 21.09 ЮЗ 1-1
{1}
25 км {туман} 3/0
[Ci fib]
+14.5 +7.9 65 +15 +19 1014.8 993.8
09 21.09 З 1-3
{3}
30 км 10/10 600 м
[Sc]
+12.4 +5.6 63 +13 +13 1015.8 994.5
12 21.09 З 2-3
{5}
20 км 8/0
[Ac trans Ci sp]
+16.3 +9.2 63 +16 +18 1015.5 994.6
15 21.09 З 1-2
{5}
24 км 10/10 600 м
[Sc]
+14.2 +11.2 82 +15 +15 1016.1 995.1 +16.5
18 21.09 Ю 1-2
{3}
10 км ясно +12.4 +11.1 92 +12 +12 1016.9 995.7
21 21.09 ЮВ 1-2
{2}
10 км ясно +11.0 +10.0 94 +11 +11 1017.0 995.7
00 22.09 Ю 1-2
{3}
4000 м дымка ясно +10.8 +9.8 94 +10 +10 1017.0 995.7
03 22.09 Ю 1-2
{4}
1500 м дымка 10/0
[Ci fib]
+10.5 +10.3 99 +10 +10 1017.0 995.7 +9.6
06 22.09 З 1-2
{3}
8000 м 8/8 1000 м
[Sc]
+14.2 +13.8 97 +14 +15 1017.3 996.3
09 22.09 З 2-4
{4}
30 км 6/0
[Ci fib]
+19.5 +15.1 76 +22 +27 комфорт 1017.2 996.6

 

Местоположение метеостанции Кумены (Кировская область, Россия): широта 58.10 долгота 49.92 высота над уровнем моря 177 м.

В архиве по умолчанию представлена погода в Кумене за последнюю неделю. Архивные данные за месяц целиком и за предыдущие месяцы, начиная с января 2011 года, Вы можете получить, выбрав интересующий диапазон дат из раскрывающегося списка и нажав кнопку "Ввод!".


*Определитесь, кто Вы:
робот инопланетянин человек

Внимание! Время в таблицах - всемирное. Для получения местного времени необходимо прибавить поправку, которая в Кумене равна 3 ч.

Смотрите также архив погоды в соседних городах и на ближайших метеорологических станциях:

Погода в Кирове (Кировская область, Россия) (58 км)
Погода в Нолинске (Кировская область, Россия) (61 км)
Погода в Котельниче (Кировская область, Россия) (95 км)
Погода в Белой Холунице (Кировская область, Россия) (98 км)
Погода в Фаленках (Кировская область, Россия) (101 км)
Погода в Унях (Кировская область, Россия) (101 км)
Погода в Уржуме (Кировская область, Россия) (109 км)
Погода в Даровском (Кировская область, Россия) (136 км)
Погода в Новом Торьяле (Марий-Эл, Россия) (141 км)
Погода в Яранске (Кировская область, Россия) (144 км)

Пояснения к столбцам:

Ветер - указаны скорость ветра в м/с - средняя за 10 мин, порывы в срок и между сроками (в фигурных скобках) и направление, откуда дует ветер: С - северный, СВ - северо-восточный, В - восточный, ЮВ - юго-восточный, Ю - южный, ЮЗ - юго-западный, З - западный, СЗ - северо-западный.
Видимость - горизонтальная дальность видимости в метрах или километрах. При видимости от 1 до 10 км при отсутствии осадков обычно наблюдается дымка, при ухудшении видимости до 1 км и менее - туман. В сухую погоду видимость может ухудшаться дымом, пылью или мглою.
Явления - указаны атмосферные явления, наблюдавшиеся в срок или в последний час перед сроком; фигурными скобками обозначены явления, наблюдавшиеся между сроками (за 1-3 часа до срока); квадратными скобками обозначены град или гололедные отложения с указанием их диаметра в мм.
Облачность - указаны через наклонную черту общая и нижняя облачность в баллах и высота нижней границы облаков в метрах; квадратными скобками обозначены формы облаков: Ci - перистые, Cs - перисто-слоистые, Cc - перисто-кучевые, Ac - высококучевые, As - высокослоистые, Sc - слоисто-кучевые, Ns - слоисто-дождевые, Cu - кучевые, Cb - кучево-дождевые. Подробнее классификацию облаков см. в Атласе облаков (PDF).
T - Температура воздуха - температура, измеренная на высоте 2 м над землей.
Td - Температура точки росы - температура, при понижении до которой содержащийся в воздухе водяной пар достигнет насыщения.
f - Относительная влажность воздуха - влажноcть воздуха, измеренная на высоте 2 м над землей.
Te - Эффективная температура - температура, которую ощущает одетый по сезону человек в тени. Характеристика душности погоды. При расчете учитывается влияние влажности воздуха и скорости ветра на теплоощущения человека.
Tes - Эффективная температура на солнце - температура, которую ощущает человек, с поправкой на солнечный нагрев. Характеристика знойности погоды. Зависит от высоты солнца над горизонтом, облачности и скорости ветра. Ночью, в пасмурную погоду, а также при ветре 12 м/с и более поправка равна нулю.
P - Атмосферное давление - приведенное к уровню моря атмосферное давление.
Po - Атмосферное давление - измеренное на уровне метеостанции атмосферное давление.
Tmin - Минимальная температура - минимум температуры воздуха на высоте 2 м над землей.
Tmax - Максимальная температура - максимум температуры воздуха на высоте 2 м над землей.
R - Количество осадков - Количество выпавших осадков за период времени, мм. При наведении курсора мыши на число - период времени, за который выпало указанное количество осадков.
R24 - Количество осадков - Количество выпавших осадков за 24 часа, мм.
S - Снежный покров - Высота снежного покрова, см. При наведении курсора мыши на число - состояние снежного покрова и степень покрытия местности в баллах.